Wind_Speed
18 18 17 11 9 13 23 32 31 25 21 19 18 14 11 12 13 13 13 14 14 10 8 4 3 6 9 8 8 12 12 8 7 8 7 8 10 11 12 10 7 5 5 6 7 6 5 7 7 8 5 1 3 4 5 6 7 8 9 9 10 12 13 15 17 18 19 20 20 21 23 25 27 27 28 28 28 28 28 27 26 24 23 22 21
19 19 19 15 12 12 16 26 28 24 22 22 19 14 13 16 16 14 14 14 13 12 7 3 2 5 7 10 13 14 11 7 7 8 7 9 10 10 7 5 3 2 4 5 5 5 5 6 7 8 3 2 3 4 5 7 8 8 9 11 12 14 15 16 18 19 19 20 20 22 25 27 27 28 28 28 28 27 25 24 22 20 19 18 17
19 20 21 19 16 13 13 18 20 19 20 19 16 14 16 17 15 13 13 13 13 12 6 3 3 3 7 13 15 13 12 9 8 7 8 10 8 6 4 2 1 3 5 6 6 5 5 6 7 7 2 3 3 4 5 7 9 9 10 13 15 16 17 18 18 19 20 20 22 24 26 27 27 27 26 25 23 21 20 19 18 16 15 14 14
21 22 23 20 18 16 16 16 14 14 13 11 13 14 15 13 13 14 14 12 12 11 8 7 6 6 7 12 14 13 12 10 8 8 8 8 5 4 3 2 2 4 7 9 8 6 6 5 6 6 2 4 4 4 5 7 9 10 11 14 17 18 19 19 19 19 20 21 23 25 26 26 25 23 21 19 18 17 16 15 15 14 13 12 12
24 25 25 19 18 18 18 16 13 11 10 9 10 11 11 11 11 14 13 10 8 8 8 9 10 8 7 9 13 12 11 10 10 9 7 6 5 4 4 2 2 4 9 12 11 8 6 5 6 5 2 5 4 4 5 7 9 10 12 16 18 19 20 20 20 20 20 22 24 25 25 24 21 18 16 15 14 14 14 13 12 12 11 11 11
26 27 26 19 19 20 18 17 11 8 10 10 10 8 9 12 12 12 12 10 7 6 8 11 11 9 7 9 14 13 11 10 10 8 6 5 4 5 5 2 1 4 9 13 13 10 7 6 5 5 2 5 5 4 5 7 9 11 13 17 19 20 20 20 20 20 21 22 23 23 23 20 18 15 13 12 12 12 11 11 11 11 10 10 10
26 28 28 21 21 23 20 18 13 8 9 11 10 8 10 14 14 14 15 12 9 9 10 11 11 10 9 11 14 15 12 9 9 9 7 5 4 6 7 3 1 3 7 11 13 12 8 6 5 5 3 5 6 5 5 6 9 11 14 18 20 20 20 19 19 19 20 21 21 20 19 17 15 13 12 11 11 10 10 9 9 9 9 9 9
28 30 31 25 25 26 22 20 17 12 10 11 10 8 11 16 16 18 16 13 13 12 13 14 11 9 9 9 10 14 15 12 11 10 8 6 5 7 8 4 0 2 5 9 12 12 9 6 5 4 3 4 7 6 5 6 8 11 13 18 20 20 20 18 18 18 18 18 18 17 16 15 14 12 11 10 10 10 9 8 8 8 8 8 8
32 31 32 29 28 28 26 24 20 16 12 11 10 7 9 16 17 19 17 14 16 15 17 17 11 7 6 7 8 11 15 15 15 12 9 7 6 8 8 5 2 2 4 7 10 11 10 7 5 4 3 2 6 7 6 6 8 10 12 17 20 20 19 19 18 18 17 16 16 16 15 14 13 12 11 10 10 9 8 7 6 6 6 6 7
36 33 33 32 31 31 29 27 23 20 15 10 10 8 9 16 17 18 20 21 21 20 20 16 9 8 6 2 9 11 13 15 15 14 11 8 8 7 7 7 4 2 2 6 8 10 11 9 6 4 3 2 4 7 7 6 7 9 11 15 20 20 20 19 19 18 17 16 15 15 14 13 13 12 11 10 9 8 7 6 5 5 5 5 5
38 34 34 35 34 32 29 27 25 22 15 8 9 9 9 15 17 16 21 24 24 22 22 15 10 11 11 7 7 12 12 12 13 13 11 9 9 8 7 7 6 3 2 4 6 8 11 10 8 5 4 3 2 6 8 7 7 9 10 13 18 21 21 20 19 19 18 16 15 14 14 13 12 11 10 9 8 6 5 4 3 3 3 3 3
40 35 35 36 35 34 31 28 27 23 16 10 10 10 8 12 15 16 19 22 22 21 21 16 12 12 13 12 9 9 12 10 10 11 9 9 10 9 7 6 6 5 3 2 3 6 8 10 10 7 5 3 2 3 7 8 7 8 10 11 15 19 21 21 20 19 18 17 16 14 13 12 11 10 8 7 6 5 3 2 1 1 1 1 2
43 37 35 37 35 35 33 30 27 22 18 13 13 14 12 12 13 14 18 20 20 19 19 18 15 13 12 13 14 11 12 10 9 9 8 8 10 10 8 6 6 6 5 3 2 3 6 7 8 9 7 4 2 2 4 7 8 8 9 11 12 16 20 22 21 20 19 18 17 15 14 12 11 10 8 7 6 5 3 2 2 2 3 3 4
45 39 37 38 36 35 35 32 28 24 19 15 18 20 16 13 14 13 15 18 19 18 17 18 17 16 14 15 16 13 12 10 9 9 9 8 8 9 8 6 6 6 7 6 4 3 4 5 5 7 7 6 4 2 2 4 8 9 9 11 12 14 16 19 22 22 21 20 19 17 16 15 13 12 11 10 9 8 7 7 6 6 6 6 7
47 41 39 39 38 36 34 33 31 27 22 18 22 23 18 13 15 15 14 16 19 19 18 19 18 18 16 17 18 13 11 12 10 8 9 8 8 9 8 7 7 7 7 7 6 6 5 4 3 3 5 5 5 4 3 3 5 9 10 10 11 13 14 16 19 21 23 23 23 22 21 19 18 17 15 14 13 12 12 11 11 11 11 10 10
49 45 42 41 40 38 35 33 31 27 25 22 22 24 21 16 15 17 15 14 18 20 20 21 21 20 19 19 19 15 13 14 11 8 9 9 8 9 10 9 7 6 7 7 8 8 8 6 4 2 3 4 4 5 4 4 4 7 10 11 11 12 14 15 16 18 20 22 23 23 23 23 22 21 20 19 17 17 16 16 16 15 15 14 13
52 50 47 44 42 39 36 34 31 28 27 26 24 25 24 20 17 17 15 13 16 20 22 23 23 23 22 20 19 17 16 14 12 10 10 10 8 9 10 9 7 7 8 8 8 9 9 8 6 4 3 3 3 4 4 5 5 5 7 10 12 12 13 14 15 16 17 18 20 21 22 23 23 23 23 22 21 20 20 19 19 19 18 17 17
56 54 51 47 44 41 38 36 34 31 30 29 26 26 26 24 21 20 18 17 19 22 24 24 23 24 23 21 20 19 18 15 13 12 11 11 9 10 11 11 9 9 10 10 9 9 9 9 8 6 6 5 4 4 4 4 5 6 6 8 11 12 13 13 15 16 17 17 18 19 20 21 22 22 23 23 23 23 22 22 22 21 21 20 20
59 55 51 48 47 45 41 40 38 35 34 31 28 28 28 27 24 23 23 23 23 24 26 26 25 25 24 23 23 22 20 18 16 14 13 12 12 11 12 13 12 11 11 11 10 10 10 10 9 8 8 7 6 5 5 4 5 6 6 7 9 11 13 14 14 15 17 18 18 19 19 20 21 22 22 23 24 24 24 24 24 24 24 23 23
60 56 52 50 51 48 45 44 41 39 38 34 32 31 31 30 27 24 24 27 27 25 27 28 28 27 26 25 24 23 22 20 19 17 16 15 14 14 15 15 14 12 11 11 11 11 11 11 11 10 10 9 9 8 7 6 5 6 6 7 8 10 11 13 15 16 16 17 19 19 20 21 21 22 22 23 24 24 25 25 25 25 25 25 25
60 57 54 52 54 52 48 47 44 42 40 38 36 35 34 33 30 28 27 28 30 28 28 29 28 27 24 23 22 23 23 22 20 19 18 17 16 16 17 17 16 14 13 13 13 12 11 11 12 12 12 12 11 10 9 8 7 7 7 7 8 9 10 12 14 15 17 18 19 20 21 22 22 23 24 24 25 25 25 26 26 26 26 26 26
61 60 58 56 56 55 52 50 47 45 43 42 40 38 37 35 33 33 30 29 31 32 31 29 28 26 23 22 23 25 25 24 23 22 20 19 19 18 18 19 18 19 18 16 13 12 11 11 12 13 13 13 14 13 12 11 9 9 8 8 9 9 10 11 12 14 15 17 18 20 21 22 23 24 25 26 26 27 27 28 28 28 28 28 28
64 63 61 58 57 58 56 54 51 48 47 45 43 40 40 39 38 36 34 33 32 33 32 29 26 25 24 24 26 27 27 27 26 25 22 21 21 20 19 18 19 19 18 17 14 12 13 12 11 11 12 13 14 15 15 14 13 12 11 11 10 10 11 11 12 13 14 16 17 19 20 22 23 24 25 26 27 27 28 29 29 30 30 31 31
68 66 64 61 59 59 59 58 55 52 50 48 46 43 41 41 41 39 38 38 35 32 32 29 25 23 23 24 25 27 29 29 29 28 25 24 23 22 20 19 19 19 18 17 15 13 14 15 14 12 12 13 14 16 17 17 16 15 15 14 13 13 13 13 13 13 14 15 15 17 19 20 22 24 25 26 27 28 28 29 30 31 31 32 33
72 69 67 63 61 59 58 59 58 55 51 49 47 43 41 42 43 42 42 40 37 33 31 29 25 22 23 23 23 27 29 30 30 29 28 27 25 24 23 21 21 21 20 19 16 14 15 18 17 15 15 15 15 16 17 17 18 18 17 17 17 16 16 15 15 15 15 15 15 16 16 18 20 22 23 25 26 27 28 29 30 31 31 32 33
75 71 68 65 63 60 55 56 59 56 52 50 47 44 43 42 43 44 44 42 40 36 32 29 26 24 25 23 24 27 29 30 31 31 31 31 28 26 26 23 22 23 23 22 19 16 17 18 17 15 15 15 15 16 16 17 18 19 19 19 19 19 18 18 17 17 16 16 16 16 16 17 18 19 21 23 24 25 26 27 28 29 30 31 32
77 74 69 65 65 62 55 53 57 58 55 51 49 47 45 45 45 45 45 44 42 37 33 30 27 27 26 24 27 31 31 32 33 32 33 32 30 28 27 25 23 23 24 24 23 20 19 20 19 18 16 15 15 15 16 18 19 20 20 21 21 21 21 21 20 19 19 18 18 18 18 18 18 18 19 20 22 23 24 25 26 27 28 29 30
79 76 71 68 67 66 62 57 57 62 61 55 51 50 48 46 46 45 45 46 43 38 37 37 34 31 29 29 34 36 33 33 34 33 33 32 31 30 29 28 26 26 26 26 25 24 23 22 22 21 20 19 18 18 19 19 20 21 21 21 22 22 23 23 23 22 22 21 21 21 20 20 20 20 20 20 21 22 23 24 24 25 25 26 27
82 78 74 71 71 70 69 65 61 64 66 60 55 53 50 47 46 45 46 46 44 40 39 39 37 35 34 37 40 39 35 34 35 34 33 32 32 31 30 29 28 29 30 28 27 27 27 26 25 24 24 23 23 22 22 21 21 22 22 22 22 22 23 23 24 24 24 24 24 24 23 23 22 22 22 22 22 22 22 23 24 24 25 25 25
84 82 78 75 75 74 74 71 65 63 65 63 59 55 52 49 47 46 46 46 47 44 38 36 35 36 39 41 41 39 36 36 36 34 34 35 35 32 29 28 28 28 30 30 30 29 29 29 28 27 26 26 25 24 23 22 21 22 22 23 23 23 23 24 24 25 26 27 27 27 26 26 25 25 24 24 23 23 23 24 24 25 25 25 25
87 85 82 79 78 78 77 75 69 64 64 63 60 57 53 50 48 48 48 47 48 48 42 38 37 38 39 37 36 37 38 36 35 35 36 38 37 33 30 30 30 30 31 32 32 32 31 31 30 29 28 27 26 25 24 23 22 22 23 23 23 23 23 24 24 25 26 27 28 29 29 29 29 28 27 26 25 25 24 25 25 25 25 25 26
89 88 85 82 80 79 78 76 72 67 65 64 60 57 55 52 52 52 51 49 48 46 43 41 39 38 35 33 33 37 38 35 33 34 36 37 37 35 34 34 35 34 33 34 34 34 33 32 31 31 30 28 27 26 25 24 23 23 23 23 23 23 22 23 24 25 25 26 27 28 30 31 32 31 31 29 28 27 26 25 25 26 25 25 26
91 90 87 85 83 81 77 74 71 69 67 65 62 59 57 55 55 55 54 52 49 46 44 43 41 36 31 30 32 37 40 37 35 36 37 37 38 38 38 38 37 36 35 34 34 34 33 33 32 31 30 29 27 27 26 26 25 25 24 24 23 23 23 23 24 24 24 24 25 26 27 30 31 33 33 33 32 30 28 27 26 26 27 26 26
91 92 90 87 85 82 78 74 71 68 67 66 64 62 59 58 58 57 56 54 53 50 48 46 43 37 30 29 33 37 38 39 40 39 38 38 40 40 40 39 37 36 35 33 32 33 33 34 33 32 31 29 28 27 27 27 27 26 26 26 25 24 24 24 24 24 25 26 25 25 26 28 29 31 33 34 34 33 31 29 28 27 27 27 27
91 92 90 89 88 85 80 76 72 69 67 67 66 65 64 62 61 59 57 56 56 55 52 50 47 42 38 38 43 44 43 43 44 42 40 40 40 41 40 38 37 36 35 33 32 32 33 33 34 33 32 30 29 28 27 27 28 27 27 27 27 27 26 26 25 24 25 26 27 27 27 27 28 29 31 32 34 34 34 32 30 29 29 29 29
90 91 90 89 89 87 82 78 75 72 69 68 68 68 67 66 64 63 59 56 57 56 55 52 50 47 46 49 54 57 56 53 48 44 43 42 41 40 40 38 37 36 35 34 33 33 32 33 34 35 34 33 32 30 29 28 29 29 29 29 29 30 29 29 28 27 26 26 27 27 28 28 28 28 29 30 32 33 35 35 33 32 31 31 30
91 91 90 89 89 87 83 80 77 74 72 71 70 69 69 68 68 67 64 59 57 57 57 55 53 51 51 55 58 58 58 56 50 47 46 44 42 42 41 39 38 36 35 32 32 35 35 34 35 36 36 36 36 35 33 31 31 31 31 31 32 32 32 32 31 30 29 28 27 27 28 28 27 27 27 28 29 31 33 35 36 35 34 33 32
92 92 91 89 88 87 84 81 80 78 75 73 72 70 69 70 70 71 69 64 61 59 59 59 58 55 54 56 56 56 56 54 50 48 47 46 45 44 42 41 39 35 33 30 32 38 39 38 39 39 37 37 38 39 38 37 35 35 35 35 34 34 34 34 33 33 33 32 29 28 29 29 28 28 28 27 28 28 30 32 34 36 36 35 34
94 93 92 91 90 88 84 81 80 80 77 75 74 73 72 73 74 73 72 70 67 64 64 65 64 62 57 52 49 52 56 55 51 49 48 47 46 43 42 42 39 35 34 34 37 41 42 42 43 43 41 40 39 39 41 41 40 40 39 38 37 36 36 36 36 34 34 33 31 29 30 30 29 29 28 27 28 28 29 30 32 34 35 36 35
95 95 93 92 92 89 85 81 79 80 79 77 76 76 75 76 76 76 74 73 72 71 71 72 72 70 63 53 46 47 53 56 54 51 50 48 46 43 41 40 38 37 37 40 43 43 42 43 43 43 44 43 40 39 40 41 41 41 39 37 37 37 37 37 37 35 33 32 30 29 29 29 29 30 29 28 28 29 29 30 31 33 34 34 35
95 96 95 93 93 91 88 82 78 78 80 80 79 78 77 77 77 77 76 75 75 75 75 77 78 76 70 63 55 49 50 54 54 53 52 51 49 47 44 43 42 42 43 44 45 44 41 41 41 42 44 44 42 40 40 40 39 38 34 32 33 35 34 34 36 35 32 30 30 30 29 28 29 31 31 31 31 30 30 31 33 34 34 34 34
94 96 96 95 93 91 90 86 81 79 81 81 81 79 78 77 78 78 78 77 77 76 76 78 78 77 75 73 69 61 56 55 55 54 54 55 53 51 49 48 48 49 49 47 46 43 42 41 42 43 44 45 43 41 39 38 36 35 33 32 32 32 32 34 37 37 34 31 31 31 31 31 30 30 32 35 37 35 33 34 36 36 35 35 35
94 95 96 97 95 92 92 90 85 82 82 82 81 80 79 79 79 80 79 79 78 77 77 77 76 75 75 75 77 75 70 66 63 60 57 57 56 55 55 55 56 55 54 52 49 46 44 44 45 45 46 48 47 43 40 38 36 35 36 37 36 34 32 35 38 39 38 36 34 34 35 36 34 31 33 37 40 39 36 37 38 37 37 37 37
93 95 96 97 97 95 94 93 90 84 82 83 83 81 81 81 81 81 81 80 80 80 80 79 78 77 75 75 76 76 74 71 69 65 61 58 57 57 58 59 60 60 57 55 53 51 48 47 47 46 46 49 51 47 43 41 38 36 38 41 43 40 35 35 38 40 42 42 40 39 40 41 38 36 37 38 39 39 40 40 40 40 40 40 39
89 93 95 96 97 98 96 95 93 88 83 83 84 84 83 82 82 82 82 81 81 81 81 81 81 79 77 76 75 74 72 70 68 67 66 63 61 60 60 59 59 59 57 56 54 53 51 49 47 47 47 49 51 51 47 41 38 38 40 45 47 44 40 38 39 41 42 44 44 42 43 45 43 41 42 44 43 41 42 43 43 44 44 43 41
83 89 94 96 97 98 98 97 96 93 88 84 84 85 85 85 84 83 82 82 82 82 82 82 82 80 78 77 76 74 72 70 69 69 69 68 67 66 64 61 59 58 56 56 55 54 52 48 47 48 49 49 51 53 49 45 43 45 47 48 48 45 43 43 42 42 43 44 44 43 44 48 48 43 45 50 50 47 46 45 46 47 48 48 47
77 83 89 94 96 97 98 98 97 96 93 89 86 85 86 86 86 85 84 83 82 82 83 83 82 81 79 78 78 76 73 72 71 72 72 72 71 70 68 66 65 62 60 59 58 56 54 51 49 50 51 51 52 54 53 52 52 53 52 51 50 50 51 51 49 48 47 48 48 46 45 49 50 46 46 51 52 51 50 49 49 50 51 52 52
71 77 83 88 93 96 97 98 98 96 95 93 90 87 86 87 87 87 86 85 84 83 83 83 83 82 81 80 79 77 75 74 74 75 75 75 75 74 72 70 69 68 66 65 64 61 60 58 55 54 54 55 55 56 58 60 59 56 52 51 52 54 56 57 55 53 53 54 55 52 48 49 52 50 49 52 52 52 53 53 53 53 53 54 55
66 71 77 82 88 92 95 97 98 97 96 95 94 91 88 87 87 87 87 86 85 85 85 84 83 82 81 80 78 76 75 76 77 78 78 78 78 76 75 73 72 72 72 71 69 66 64 63 62 60 59 59 58 59 61 62 61 59 56 54 55 57 57 58 58 57 58 58 58 56 52 52 56 55 52 53 53 53 54 55 57 57 56 58 61
62 66 71 76 81 86 91 94 96 97 97 96 96 95 91 89 87 87 87 86 86 86 86 85 84 83 81 80 78 76 76 77 78 80 80 79 78 77 76 75 75 75 74 73 71 70 68 67 66 64 62 62 62 62 62 63 64 64 63 61 60 59 58 58 60 60 60 60 62 61 57 55 58 58 55 55 54 54 57 59 60 61 61 62 65
57 61 66 71 76 80 85 90 93 95 96 97 98 98 95 92 89 88 87 87 86 86 86 86 85 84 82 81 79 78 77 78 79 80 80 79 78 78 78 77 77 76 75 74 73 72 71 70 68 66 65 65 65 65 66 67 68 68 67 64 62 61 60 60 61 62 62 63 66 66 62 59 60 61 60 57 54 55 59 61 60 62 62 60 60
Wind_Direction
238 235 236 239 236 211 204 211 224 233 230 236 238 233 241 252 256 251 243 228 211 205 218 243 338 347 341 333 304 300 309 308 299 292 288 296 303 301 296 289 281 284 301 311 315 317 335 337 333 330 320 175 154 165 147 134 128 125 120 116 116 120 123 124 123 119 117 116 115 114 113 112 112 111 110 109 109 108 108 108 108 106 105 103 102
234 232 229 230 228 212 205 211 222 230 230 236 230 224 237 245 250 243 227 218 209 208 218 251 346 358 337 301 286 289 295 296 289 283 295 309 309 302 287 264 261 308 330 337 336 336 352 350 339 329 311 152 164 170 147 135 127 125 122 121 126 126 127 128 126 123 122 120 118 117 116 115 114 113 111 110 109 108 107 106 105 104 103 101 99
227 226 225 225 221 211 207 207 214 220 224 226 214 218 232 234 240 227 208 205 207 215 233 260 283 309 293 283 282 279 277 281 279 279 303 311 307 296 258 208 332 2 6 2 350 347 360 354 342 330 292 161 171 169 148 137 128 124 124 127 132 131 130 130 128 127 125 124 122 121 120 119 117 115 113 111 109 107 105 104 102 100 98 95 93
223 218 219 221 216 210 205 193 190 195 199 203 197 210 222 223 223 207 198 199 205 222 234 236 248 263 277 281 276 271 273 272 270 278 298 306 301 279 226 177 24 19 23 14 358 349 355 352 346 335 268 171 173 170 150 140 129 123 128 133 136 134 133 131 128 128 128 127 126 125 124 122 120 117 115 112 109 106 103 101 99 96 93 89 86
223 215 216 216 209 206 198 179 172 170 159 170 186 197 208 207 199 194 197 200 209 228 237 243 243 242 260 271 263 263 270 262 257 270 282 298 296 253 207 173 27 30 32 24 9 354 345 345 350 342 266 182 176 172 154 141 133 125 133 141 141 138 135 132 129 128 129 129 129 129 128 126 123 120 116 113 108 104 102 98 95 92 89 86 82
221 214 213 207 200 201 194 180 179 168 144 156 179 193 196 181 177 185 187 192 213 223 233 250 243 232 239 252 250 247 259 257 242 253 273 289 280 224 202 189 25 34 37 27 17 3 344 336 347 349 290 196 178 173 163 147 138 130 139 148 146 143 139 135 133 131 130 131 132 132 131 130 127 124 119 114 106 100 96 92 90 88 85 82 78
217 211 210 205 201 200 196 191 192 180 143 146 174 196 191 176 177 184 176 179 203 210 218 240 243 236 237 251 251 239 245 253 238 249 268 275 255 209 202 197 22 29 37 29 20 11 352 336 339 350 319 211 185 173 171 156 143 135 143 153 152 148 146 143 140 138 137 136 136 136 136 136 134 131 124 116 108 100 93 88 85 82 80 77 74
215 210 207 206 202 199 199 199 196 186 154 142 160 172 184 187 186 182 171 174 198 213 226 237 244 243 248 265 259 239 240 247 246 255 259 254 234 205 205 205 293 11 32 30 23 17 4 344 332 342 336 233 199 178 171 165 151 142 147 158 159 155 153 152 149 147 146 144 144 143 143 143 140 136 130 122 114 106 99 91 85 80 76 73 69
214 210 207 205 202 198 200 202 198 188 169 158 160 144 177 193 187 180 175 180 196 209 227 236 235 225 246 284 278 250 242 247 250 254 249 236 215 203 209 213 227 343 19 26 25 22 13 357 335 329 341 276 215 192 175 171 162 149 151 161 165 163 161 159 157 155 154 152 150 149 147 146 143 140 134 128 120 112 106 99 92 85 77 73 68
212 210 206 204 202 199 199 200 197 190 180 173 170 157 186 194 186 183 182 188 195 200 215 225 218 199 188 267 291 274 250 247 249 247 240 220 202 200 211 218 226 291 3 20 22 23 18 9 350 324 329 321 238 211 188 176 172 160 155 164 171 172 169 167 166 163 161 160 158 155 153 151 148 145 139 132 124 116 111 105 100 92 82 75 67
209 210 206 202 202 200 198 197 194 191 186 175 177 178 196 198 196 196 190 192 195 200 210 208 199 193 169 166 266 281 266 252 244 238 231 213 198 192 200 218 226 245 310 10 17 21 18 12 3 338 316 330 282 234 210 189 180 173 164 165 174 180 179 177 175 173 171 170 169 166 163 162 159 155 148 142 135 127 118 110 101 90 74 62 53
207 207 203 200 201 201 199 195 192 193 192 188 190 199 219 214 211 212 205 199 196 201 206 195 187 187 172 171 201 253 268 263 244 229 218 211 207 197 194 211 221 233 256 318 4 14 15 10 4 353 327 311 321 269 236 214 195 184 178 173 176 184 188 188 185 183 182 182 182 181 179 177 176 173 169 164 159 152 142 125 85 45 7 352 354
206 203 199 198 199 200 201 198 193 191 192 190 190 205 228 222 210 213 212 206 198 200 201 190 184 184 185 188 194 225 258 265 248 222 210 218 220 216 215 221 224 226 236 255 302 352 8 6 1 357 342 314 302 306 265 240 221 201 190 187 184 187 193 198 197 196 194 194 195 197 197 198 199 200 201 201 200 200 209 229 274 303 310 306 305
206 201 197 197 197 197 200 200 198 196 195 190 190 206 226 216 207 220 219 212 205 200 198 193 191 191 199 206 210 232 256 258 247 223 215 222 223 226 231 238 241 229 228 243 263 300 344 355 354 356 349 329 302 280 276 255 241 228 212 200 197 195 196 202 207 209 210 210 211 214 216 219 223 226 229 233 236 240 247 256 268 282 295 300 300
206 200 196 198 197 197 201 202 202 202 201 194 193 210 231 222 216 229 227 217 211 203 199 202 205 203 208 219 224 236 252 252 247 229 219 221 223 224 219 224 240 237 231 240 258 279 300 316 322 342 350 340 317 289 263 250 243 239 233 222 212 208 205 206 210 216 220 224 226 230 234 237 240 243 245 248 252 256 261 266 271 277 284 289 291
205 201 197 199 199 199 203 204 202 201 202 199 196 208 228 233 222 226 229 222 213 207 206 211 213 211 213 225 230 234 244 246 240 226 221 225 227 222 217 220 236 253 252 246 256 271 283 290 279 279 323 337 325 306 279 260 246 238 238 237 231 224 219 217 216 219 224 229 233 236 240 244 247 250 252 255 259 263 267 270 273 276 280 283 283
204 202 200 200 200 200 205 206 201 198 200 202 200 200 215 230 222 216 226 231 220 213 214 216 216 216 219 225 230 234 240 240 234 224 223 230 227 218 225 236 248 265 272 262 255 265 277 280 268 254 268 296 311 309 294 273 258 245 239 239 240 239 235 231 229 229 230 234 238 240 243 246 250 252 255 257 260 264 267 270 273 275 278 279 279
204 203 202 201 201 201 205 207 202 198 199 203 203 198 207 224 220 208 208 217 226 224 219 216 214 216 219 223 230 236 235 235 234 229 228 233 229 219 226 241 254 269 279 271 257 257 269 273 262 249 250 263 276 287 295 286 270 260 249 242 241 242 244 243 241 240 240 242 244 247 249 251 252 255 257 259 261 264 266 269 272 274 276 276 277
206 204 202 202 203 203 204 206 203 199 200 203 205 203 208 219 220 212 202 204 222 231 224 216 213 215 219 223 228 232 232 235 235 231 230 230 228 227 229 237 249 266 276 273 266 259 261 265 258 249 250 257 265 272 282 288 283 274 264 254 247 244 244 246 248 248 249 249 249 251 254 256 257 258 259 261 262 264 267 269 271 273 275 276 276
207 206 204 202 203 204 203 203 203 201 201 205 209 210 212 216 218 213 202 200 211 227 230 222 216 218 222 224 226 225 229 237 236 229 228 227 226 232 236 238 246 256 259 265 276 272 262 262 258 252 252 256 263 271 275 279 283 283 277 269 261 254 250 247 248 250 252 254 255 255 256 258 260 261 262 263 265 267 268 270 272 273 274 275 276
206 207 206 205 204 205 204 203 204 204 204 207 211 213 215 216 216 210 204 203 206 215 225 222 216 219 225 228 229 227 230 238 238 229 227 227 226 234 240 243 248 251 253 263 277 277 269 266 264 262 260 260 263 269 273 274 276 280 283 281 276 270 265 260 255 253 253 254 256 258 259 260 262 263 264 265 267 268 270 271 272 273 274 275 276
207 207 207 206 206 206 206 207 208 207 205 208 211 214 216 215 214 210 208 209 205 205 212 214 212 218 226 229 232 233 234 240 241 232 229 230 229 234 241 247 253 255 254 259 267 271 273 273 272 272 272 272 271 270 271 272 270 273 276 280 283 280 277 272 267 263 261 259 259 260 261 261 263 264 265 266 268 269 270 272 273 273 274 275 276
207 209 208 207 206 208 209 211 212 209 208 211 214 217 218 216 214 212 212 212 207 204 208 210 212 220 227 229 233 235 235 239 241 236 234 235 234 234 241 251 258 257 250 249 252 261 270 272 274 279 282 283 283 279 276 274 271 270 270 272 276 279 281 280 277 273 269 267 265 264 264 264 265 266 267 268 269 270 271 273 274 275 276 277 277
208 209 210 208 207 209 211 212 213 211 211 214 218 220 218 217 216 213 213 214 210 208 209 208 208 218 227 230 234 237 235 235 237 236 235 239 238 234 239 248 252 252 247 244 248 259 269 274 274 279 283 285 287 287 282 279 276 274 273 272 272 274 278 281 283 282 279 275 272 269 268 269 269 269 269 270 270 271 272 273 275 276 277 278 278
209 209 210 209 207 209 211 213 212 211 213 215 218 217 215 215 215 213 212 212 211 211 211 208 207 213 221 228 236 239 236 233 233 232 233 238 239 236 238 243 247 247 245 245 249 253 260 266 268 271 279 284 285 285 284 282 279 277 276 275 274 274 274 276 280 282 284 283 281 278 275 273 273 272 272 272 272 273 274 274 275 276 276 277 278
209 209 210 210 208 207 209 213 213 210 208 209 210 208 209 213 213 213 213 211 210 211 211 212 216 222 221 221 230 238 239 237 233 230 231 236 240 239 239 243 245 244 243 244 246 245 244 247 251 259 272 281 281 277 277 280 280 279 278 276 275 274 274 275 277 279 282 284 285 285 283 281 279 278 277 276 276 276 276 276 277 277 278 278 279
208 208 208 209 208 205 206 210 212 210 205 203 203 204 207 212 213 214 214 211 210 209 208 209 215 225 225 220 225 235 241 241 235 229 229 234 239 240 240 241 242 240 240 243 244 244 244 243 245 251 258 265 268 270 273 277 278 279 278 278 276 275 275 275 275 276 278 280 282 284 285 285 285 284 284 283 281 280 279 279 280 281 281 282 282
208 206 207 209 206 204 204 204 208 209 205 203 204 205 207 212 215 214 215 213 210 206 202 200 204 214 221 225 230 236 242 242 236 231 230 232 237 239 239 240 240 239 240 244 247 247 248 248 251 256 258 259 262 269 276 279 279 279 278 278 278 277 278 278 277 276 275 276 277 279 281 283 284 286 286 287 287 286 284 283 283 283 285 286 287
207 205 205 207 206 205 205 204 206 207 206 205 205 205 206 211 213 213 215 213 208 202 199 198 203 209 215 225 234 238 241 241 238 235 231 233 237 238 239 243 244 241 242 247 251 252 252 254 258 261 261 262 264 269 274 278 280 280 279 278 278 279 279 279 279 278 277 275 274 274 276 278 280 282 284 286 288 289 289 287 285 285 285 287 288
206 205 205 207 207 207 208 207 207 206 205 205 205 205 206 209 210 211 214 211 206 209 211 207 208 212 217 228 236 238 239 240 239 234 230 235 242 241 238 242 247 246 245 248 252 255 256 258 261 263 262 263 265 267 270 273 276 278 279 278 279 279 280 281 281 280 280 279 277 275 274 274 276 278 279 282 284 287 289 290 289 288 287 287 287
205 206 206 207 207 208 210 210 209 207 206 206 205 205 206 208 208 209 211 210 208 215 219 213 212 215 222 233 237 236 238 239 238 234 231 236 244 245 242 246 251 251 248 249 253 256 259 261 263 264 265 265 266 266 267 269 272 274 275 276 277 277 278 280 281 282 283 282 282 280 277 276 274 274 275 276 278 281 284 287 289 290 290 289 287
204 206 206 207 208 209 211 211 210 210 209 208 207 206 206 208 208 208 209 210 210 213 213 211 213 218 226 236 237 235 236 234 233 233 233 236 240 242 245 249 253 252 249 250 254 256 259 262 263 263 265 265 265 265 265 266 268 271 272 273 275 276 277 277 279 281 282 283 284 284 283 280 278 275 274 274 274 276 277 280 284 287 290 290 290
203 205 207 208 209 210 210 210 210 211 210 209 208 206 206 207 209 209 209 209 211 212 211 211 213 216 227 238 240 238 236 233 231 232 233 235 237 239 243 248 250 249 248 250 254 257 258 260 261 262 263 263 263 263 263 265 267 268 270 272 274 278 279 279 279 281 283 285 287 288 288 286 282 279 276 274 273 272 273 274 277 281 285 288 291
203 204 207 209 210 211 211 210 210 210 210 209 208 207 206 207 209 210 209 210 211 213 214 214 212 212 219 231 236 237 237 236 234 232 233 235 237 240 242 246 248 247 247 250 254 257 258 259 260 261 261 260 261 261 262 263 264 265 267 270 272 276 278 280 282 283 284 286 289 291 292 292 290 286 281 277 273 271 270 271 272 275 278 282 286
204 204 206 209 210 211 211 211 210 209 208 208 209 209 208 208 210 211 211 211 212 213 215 217 214 210 210 218 227 229 228 230 230 231 234 236 237 239 243 246 247 246 247 252 256 260 260 260 261 261 261 260 259 260 260 262 263 264 266 269 271 274 277 280 282 284 285 287 288 289 290 292 293 292 289 284 277 272 270 269 270 271 273 275 278
205 205 206 208 210 211 212 212 211 210 208 208 208 209 209 209 210 212 212 211 211 214 217 217 213 209 209 215 223 227 227 229 231 233 236 237 237 239 242 246 247 246 248 252 258 263 264 264 265 264 263 263 262 262 261 262 264 267 269 270 272 274 277 280 283 286 287 287 286 286 287 289 291 293 293 291 285 278 272 270 270 270 270 271 272
207 206 207 208 209 211 211 212 211 211 209 208 208 209 210 210 211 213 214 212 211 213 216 215 212 212 214 218 224 228 229 230 233 235 236 237 239 241 242 244 247 250 252 255 263 268 267 267 269 266 264 263 264 264 265 265 266 267 270 273 275 277 278 280 283 286 287 286 285 284 284 286 290 292 293 293 292 287 280 275 273 271 271 269 269
209 208 207 208 209 210 211 212 212 211 210 209 210 210 210 211 212 214 216 216 214 213 215 216 216 217 219 223 229 232 231 230 232 233 235 236 239 242 243 245 248 251 253 254 257 262 264 267 268 267 266 264 263 264 266 267 268 268 270 273 277 279 280 281 283 284 284 285 286 284 283 284 286 288 291 293 295 294 291 285 280 276 273 270 268
210 210 209 209 209 210 211 212 212 212 212 211 211 212 212 213 214 215 217 218 218 216 216 218 220 222 222 226 232 234 233 232 233 234 236 238 240 242 243 246 249 250 248 245 247 254 262 267 267 266 266 265 265 265 264 265 268 269 270 272 276 278 279 280 282 283 283 283 284 284 284 284 285 284 285 290 294 295 296 295 291 284 278 274 271
210 211 210 209 209 210 210 212 213 213 212 212 212 213 213 215 217 218 219 219 220 221 221 221 222 224 226 228 233 234 233 232 234 236 237 239 241 242 243 245 247 246 244 245 249 256 263 267 266 266 266 266 266 266 264 264 266 268 270 272 274 275 276 279 281 282 281 279 280 284 284 284 286 285 283 285 289 291 294 296 295 292 288 284 280
210 211 212 211 210 210 210 212 213 213 212 213 213 214 214 215 217 219 220 221 222 223 224 225 226 226 228 231 234 234 233 232 234 238 239 240 241 243 244 246 246 245 246 250 254 258 262 265 266 266 265 264 264 265 265 264 264 267 271 273 274 277 280 281 281 280 277 275 277 280 280 279 280 280 279 278 282 286 289 291 291 293 295 294 291
211 212 213 212 211 210 210 211 213 214 213 213 214 214 214 215 216 218 220 222 223 225 226 228 229 230 230 233 235 235 235 234 235 240 243 242 242 243 244 246 247 248 251 254 257 260 262 265 267 269 265 261 260 263 264 262 264 268 270 269 272 280 284 282 281 279 275 274 276 276 274 273 275 276 273 271 274 277 280 284 286 289 293 295 294
211 212 213 214 213 211 211 211 213 215 215 215 215 215 215 215 216 218 220 221 223 225 227 230 232 232 233 234 236 237 238 239 241 244 244 243 244 247 248 248 249 251 253 256 258 260 262 265 268 270 266 259 257 260 261 259 262 268 270 267 267 275 282 279 277 277 274 274 277 277 274 272 273 275 272 270 271 271 272 278 281 283 288 291 291
213 213 213 214 214 213 212 212 212 215 217 217 217 217 217 217 218 218 219 221 223 225 227 230 232 234 235 236 236 238 240 242 244 245 243 244 247 251 253 253 252 252 254 256 256 257 261 265 268 268 264 258 255 256 258 260 263 267 270 269 266 269 273 271 269 272 273 274 275 277 278 276 272 270 271 272 272 270 270 273 275 276 282 286 287
214 214 214 214 215 215 214 214 213 214 217 219 219 219 219 219 219 220 220 221 223 225 227 230 232 234 235 236 237 238 239 241 243 244 244 246 250 253 254 254 252 250 252 253 253 255 260 264 266 264 262 258 254 254 256 260 264 267 269 268 266 266 264 261 262 265 268 272 274 276 280 280 275 268 267 270 271 270 270 270 271 273 277 280 283
215 215 215 215 215 215 216 216 215 214 216 219 221 221 221 221 221 221 222 222 223 225 227 229 231 233 234 236 237 238 239 240 242 244 246 248 251 252 254 253 250 248 250 253 255 257 260 263 265 263 260 257 255 255 255 255 260 268 269 266 265 264 261 260 259 259 261 267 272 275 279 280 278 272 267 266 268 269 269 268 267 269 273 276 279
217 216 216 216 216 217 217 217 217 216 217 219 221 222 222 222 223 223 223 224 225 226 228 229 231 232 233 235 236 238 239 241 243 245 247 249 250 252 253 252 251 251 253 256 258 260 260 262 266 265 261 257 255 254 253 253 259 268 270 267 264 262 262 263 263 262 264 268 271 273 275 277 278 276 269 265 266 267 268 267 265 266 270 274 276
218 217 217 217 217 217 218 218 218 218 218 218 220 223 223 223 224 225 225 226 227 228 229 230 231 232 233 235 236 237 239 241 243 244 246 248 249 251 252 253 253 254 256 259 261 262 262 262 265 266 263 258 254 253 253 256 261 266 269 270 269 265 264 266 268 268 269 271 272 272 271 273 276 277 274 269 266 266 267 267 266 267 268 271 273
220 218 218 218 218 218 218 219 219 219 219 218 219 222 223 224 225 226 227 228 229 229 230 231 232 233 234 235 236 237 238 240 241 243 244 246 248 250 252 253 254 255 257 259 261 262 261 261 263 264 263 260 258 256 256 259 263 265 268 271 271 269 267 267 268 268 269 270 272 272 271 271 274 276 276 273 269 266 265 265 265 265 267 270 273
220 220 219 219 219 219 219 219 219 220 220 219 219 220 223 224 226 227 228 229 230 231 232 233 233 234 235 236 236 237 237 238 240 241 243 245 248 250 251 252 253 255 257 259 260 260 260 261 263 263 262 261 260 260 260 262 264 265 267 268 269 269 267 266 265 266 268 271 272 272 271 271 273 274 274 273 272 269 264 262 262 263 266 271 274
221 221 221 220 220 220 220 220 220 220 220 220 220 220 222 224 226 227 228 230 231 232 233 234 235 235 236 237 236 237 237 238 240 242 244 246 247 248 249 250 252 254 256 258 259 260 261 263 264 263 261 261 261 262 262 263 264 265 267 268 268 268 267 265 265 266 268 270 272 272 271 271 272 273 273 273 272 270 266 263 261 262 264 267 270
Height
10763 10764 10764 10763 10763 10762 10763 10766 10767 10768 10769 10770 10770 10771 10772 10773 10775 10776 10776 10777 10779 10780 10781 10782 10781 10780 10780 10781 10784 10784 10785 10785 10786 10786 10787 10787 10788 10788 10788 10788 10788 10789 10789 10789 10789 10788 10787 10787 10787 10787 10786 10786 10786 10787 10786 10786 10786 10786 10786 10785 10785 10785 10786 10786 10786 10786 10786 10787 10787 10788 10788 10788 10788 10789 10789 10790 10791 10792 10793 10794 10795 10796 10796 10797 10798
10762 10763 10763 10763 10762 10762 10763 10765 10766 10767 10768 10769 10769 10769 10770 10772 10774 10775 10775 10777 10778 10780 10780 10781 10780 10779 10779 10782 10784 10785 10785 10786 10786 10786 10787 10787 10788 10788 10788 10788 10789 10790 10790 10789 10789 10788 10787 10787 10787 10787 10787 10786 10787 10787 10787 10787 10787 10787 10787 10787 10787 10787 10787 10788 10788 10788 10788 10789 10789 10790 10790 10790 10791 10791 10792 10793 10793 10794 10795 10796 10797 10798 10798 10799 10799
10760 10761 10762 10762 10762 10762 10763 10764 10766 10767 10768 10768 10768 10768 10769 10771 10774 10774 10775 10777 10778 10779 10780 10780 10781 10780 10781 10783 10784 10784 10785 10786 10786 10786 10787 10787 10787 10788 10788 10789 10790 10790 10790 10789 10789 10788 10788 10787 10787 10787 10787 10787 10787 10788 10788 10787 10788 10788 10788 10788 10788 10789 10789 10790 10790 10790 10790 10791 10791 10792 10792 10793 10793 10794 10794 10795 10796 10796 10797 10798 10799 10799 10800 10800 10800
10758 10759 10760 10761 10762 10762 10763 10764 10765 10766 10767 10767 10767 10767 10768 10770 10773 10774 10775 10777 10778 10780 10781 10781 10782 10783 10784 10785 10784 10784 10785 10785 10786 10786 10787 10787 10788 10788 10789 10790 10790 10791 10790 10790 10789 10789 10788 10788 10788 10787 10787 10787 10788 10788 10788 10788 10788 10789 10789 10790 10790 10791 10791 10791 10792 10792 10792 10793 10793 10793 10794 10794 10795 10796 10796 10797 10797 10798 10799 10799 10800 10801 10801 10801 10801
10755 10757 10758 10759 10761 10762 10763 10764 10765 10766 10766 10766 10767 10767 10768 10770 10772 10774 10775 10776 10778 10780 10783 10783 10784 10784 10785 10785 10784 10784 10785 10785 10786 10786 10787 10788 10788 10789 10790 10790 10791 10791 10790 10790 10790 10789 10789 10789 10788 10788 10788 10788 10788 10789 10789 10789 10789 10790 10790 10791 10792 10792 10793 10793 10793 10794 10794 10795 10795 10795 10796 10796 10797 10798 10798 10798 10799 10799 10800 10800 10801 10802 10802 10802 10802
10753 10755 10756 10757 10759 10761 10762 10763 10765 10765 10764 10764 10765 10766 10767 10769 10771 10773 10773 10775 10778 10781 10784 10786 10785 10785 10785 10785 10784 10784 10784 10784 10785 10786 10787 10787 10788 10789 10790 10790 10791 10791 10791 10790 10790 10790 10790 10789 10789 10788 10788 10788 10789 10789 10789 10790 10790 10791 10791 10792 10793 10794 10795 10795 10795 10796 10796 10797 10797 10797 10798 10798 10799 10799 10799 10800 10800 10800 10801 10801 10802 10802 10802 10803 10803
10750 10752 10754 10756 10758 10760 10761 10762 10763 10764 10763 10762 10764 10765 10767 10769 10772 10773 10772 10774 10778 10782 10786 10787 10785 10785 10785 10785 10785 10784 10784 10785 10785 10786 10786 10787 10788 10789 10790 10790 10791 10791 10791 10790 10790 10790 10790 10790 10789 10789 10789 10789 10789 10789 10790 10790 10791 10791 10792 10793 10794 10795 10796 10797 10797 10798 10798 10799 10799 10800 10800 10800 10800 10801 10801 10801 10801 10801 10802 10802 10803 10803 10803 10803 10803
10748 10749 10751 10753 10755 10758 10759 10761 10762 10763 10762 10762 10763 10764 10766 10769 10771 10772 10771 10774 10778 10782 10786 10786 10785 10785 10785 10785 10784 10784 10784 10784 10785 10785 10786 10787 10787 10788 10789 10790 10791 10791 10791 10791 10790 10790 10790 10790 10790 10790 10789 10789 10789 10790 10790 10791 10791 10792 10793 10794 10795 10796 10797 10798 10799 10799 10800 10800 10801 10801 10801 10802 10802 10802 10802 10802 10802 10802 10803 10803 10803 10803 10804 10804 10804
10745 10747 10748 10751 10753 10755 10757 10759 10761 10762 10762 10763 10763 10764 10765 10768 10770 10771 10773 10775 10778 10783 10786 10785 10784 10784 10784 10785 10784 10783 10784 10784 10784 10785 10785 10786 10787 10788 10789 10790 10790 10791 10791 10791 10791 10790 10790 10790 10790 10790 10790 10790 10790 10790 10791 10791 10792 10792 10793 10794 10795 10796 10798 10799 10799 10800 10801 10801 10802 10802 10802 10803 10803 10803 10803 10803 10803 10803 10804 10804 10804 10804 10804 10804 10805
10742 10744 10746 10749 10751 10753 10755 10757 10759 10760 10761 10763 10763 10763 10764 10766 10768 10770 10773 10775 10777 10781 10784 10783 10783 10782 10783 10785 10785 10783 10783 10784 10784 10784 10785 10786 10786 10787 10788 10789 10790 10791 10791 10791 10791 10791 10790 10790 10790 10790 10790 10790 10790 10790 10791 10791 10792 10793 10794 10794 10795 10797 10798 10799 10800 10800 10801 10802 10802 10803 10803 10803 10804 10804 10804 10804 10804 10805 10805 10805 10805 10805 10805 10805 10805
10738 10740 10743 10746 10749 10751 10754 10756 10758 10759 10760 10762 10762 10762 10763 10765 10767 10770 10772 10772 10774 10778 10780 10780 10781 10780 10779 10782 10785 10784 10783 10783 10784 10784 10785 10785 10786 10787 10788 10789 10790 10790 10791 10791 10791 10791 10791 10791 10790 10790 10791 10791 10791 10791 10791 10792 10792 10793 10794 10794 10795 10796 10798 10799 10800 10800 10801 10802 10802 10803 10803 10804 10804 10804 10804 10805 10805 10805 10805 10806 10806 10806 10806 10806 10806
10735 10737 10739 10743 10747 10750 10753 10755 10757 10757 10759 10760 10759 10760 10763 10765 10767 10769 10770 10770 10771 10775 10777 10779 10780 10779 10777 10779 10782 10784 10783 10783 10784 10784 10785 10785 10786 10787 10787 10788 10789 10790 10790 10791 10791 10791 10791 10791 10791 10791 10791 10791 10791 10791 10792 10792 10793 10793 10793 10794 10795 10796 10797 10798 10799 10800 10801 10802 10802 10803 10803 10804 10804 10804 10805 10805 10805 10806 10806 10806 10806 10806 10806 10806 10806
10731 10734 10737 10741 10745 10749 10752 10754 10755 10756 10757 10757 10756 10757 10761 10764 10766 10767 10768 10769 10770 10773 10775 10777 10778 10778 10777 10777 10779 10781 10782 10783 10784 10784 10785 10785 10786 10786 10787 10787 10788 10789 10790 10790 10791 10791 10791 10791 10791 10791 10791 10791 10791 10791 10792 10792 10793 10793 10794 10794 10795 10796 10797 10798 10799 10800 10801 10802 10802 10803 10803 10804 10804 10804 10805 10805 10805 10806 10806 10806 10806 10806 10806 10806 10806
10727 10731 10735 10738 10742 10746 10749 10752 10753 10754 10755 10754 10753 10754 10758 10762 10765 10766 10767 10768 10770 10771 10773 10775 10777 10777 10778 10777 10778 10779 10781 10782 10783 10784 10784 10785 10785 10786 10786 10786 10787 10788 10788 10789 10790 10790 10791 10791 10791 10791 10791 10791 10791 10791 10792 10792 10793 10794 10794 10794 10795 10795 10796 10797 10798 10799 10800 10801 10802 10803 10803 10804 10804 10804 10805 10805 10805 10805 10806 10806 10806 10806 10806 10806 10806
10724 10728 10731 10735 10739 10742 10745 10748 10750 10752 10752 10752 10750 10750 10754 10759 10763 10765 10766 10768 10769 10770 10772 10774 10775 10776 10777 10777 10777 10778 10779 10781 10782 10782 10783 10784 10785 10785 10785 10785 10785 10787 10787 10788 10789 10790 10790 10790 10790 10791 10791 10790 10791 10791 10792 10792 10793 10794 10794 10795 10795 10795 10796 10797 10798 10799 10799 10800 10801 10802 10802 10803 10804 10804 10804 10805 10805 10805 10805 10805 10805 10805 10805 10805 10805
10720 10724 10727 10730 10734 10738 10742 10745 10747 10749 10750 10750 10750 10749 10751 10756 10760 10763 10765 10767 10768 10770 10771 10772 10773 10774 10775 10775 10776 10777 10778 10779 10780 10781 10782 10783 10784 10785 10785 10785 10785 10786 10787 10787 10788 10789 10789 10790 10790 10790 10790 10790 10790 10791 10791 10792 10792 10793 10794 10795 10795 10796 10796 10797 10797 10798 10799 10799 10800 10801 10802 10802 10803 10803 10804 10804 10804 10804 10804 10804 10804 10804 10804 10804 10804
10714 10718 10722 10726 10730 10734 10739 10742 10744 10746 10747 10748 10748 10748 10749 10752 10757 10761 10763 10764 10766 10767 10769 10769 10770 10771 10773 10774 10775 10775 10776 10777 10778 10780 10781 10783 10784 10785 10786 10786 10786 10785 10786 10787 10787 10788 10789 10789 10790 10790 10790 10790 10790 10791 10791 10791 10792 10793 10793 10794 10795 10796 10796 10797 10797 10798 10798 10799 10800 10800 10801 10802 10802 10803 10803 10803 10803 10803 10803 10803 10803 10803 10803 10803 10803
10706 10710 10716 10722 10726 10730 10734 10737 10739 10742 10744 10745 10745 10746 10748 10750 10753 10757 10759 10761 10763 10764 10766 10767 10768 10769 10770 10772 10774 10774 10775 10776 10777 10778 10780 10782 10783 10784 10785 10786 10786 10786 10786 10786 10786 10787 10788 10789 10789 10790 10790 10790 10790 10791 10791 10791 10792 10792 10793 10793 10794 10795 10796 10797 10797 10798 10798 10799 10799 10800 10800 10801 10801 10802 10802 10802 10803 10803 10802 10802 10802 10802 10802 10802 10801
10700 10705 10712 10718 10722 10726 10729 10731 10734 10737 10740 10742 10743 10745 10747 10749 10752 10754 10755 10757 10760 10762 10762 10764 10765 10766 10768 10770 10772 10773 10773 10774 10775 10777 10778 10780 10782 10783 10784 10785 10785 10786 10786 10786 10786 10787 10787 10788 10789 10790 10790 10790 10790 10791 10791 10791 10791 10792 10792 10793 10793 10794 10795 10796 10796 10797 10798 10798 10799 10799 10800 10800 10800 10801 10801 10801 10801 10801 10801 10801 10801 10801 10801 10800 10800
10696 10701 10707 10712 10716 10720 10723 10725 10729 10732 10735 10739 10741 10743 10746 10748 10751 10753 10753 10754 10757 10759 10760 10760 10762 10764 10766 10767 10769 10771 10772 10772 10774 10775 10776 10778 10779 10781 10782 10784 10784 10785 10786 10785 10785 10786 10787 10788 10789 10789 10790 10790 10790 10791 10791 10791 10791 10791 10792 10792 10793 10793 10794 10794 10795 10796 10796 10797 10797 10798 10798 10799 10799 10799 10799 10799 10800 10800 10800 10800 10799 10799 10799 10799 10798
10692 10696 10701 10705 10709 10713 10717 10721 10724 10727 10731 10735 10738 10741 10744 10746 10749 10751 10752 10751 10752 10754 10757 10758 10759 10761 10763 10765 10767 10768 10769 10770 10772 10773 10774 10775 10777 10779 10781 10782 10783 10783 10784 10785 10785 10786 10787 10787 10788 10789 10789 10790 10790 10791 10791 10791 10791 10791 10791 10792 10792 10793 10793 10793 10794 10794 10795 10795 10796 10796 10797 10797 10797 10798 10798 10798 10798 10798 10798 10798 10798 10798 10797 10797 10797
10686 10690 10693 10697 10702 10708 10713 10716 10719 10723 10727 10730 10734 10737 10740 10743 10746 10748 10748 10749 10749 10750 10752 10754 10756 10758 10760 10762 10765 10766 10767 10769 10770 10772 10773 10774 10775 10777 10779 10780 10781 10782 10782 10783 10784 10785 10786 10786 10787 10787 10788 10789 10790 10790 10790 10791 10791 10791 10791 10791 10791 10792 10792 10792 10793 10793 10793 10794 10794 10794 10795 10795 10795 10796 10796 10796 10796 10796 10796 10796 10796 10796 10796 10795 10795
10680 10684 10688 10693 10699 10704 10708 10711 10715 10720 10723 10726 10730 10733 10736 10740 10742 10744 10745 10746 10747 10747 10749 10752 10753 10755 10757 10760 10762 10764 10765 10767 10768 10770 10771 10772 10774 10775 10776 10778 10779 10780 10781 10782 10783 10784 10784 10785 10786 10786 10787 10788 10789 10789 10790 10790 10790 10790 10790 10790 10790 10791 10791 10791 10791 10791 10792 10792 10792 10792 10793 10793 10793 10793 10794 10794 10794 10794 10794 10794 10794 10794 10794 10793 10793
10673 10679 10684 10690 10695 10699 10703 10707 10711 10716 10720 10723 10726 10729 10733 10736 10739 10741 10742 10743 10744 10746 10747 10749 10750 10752 10755 10757 10759 10761 10762 10764 10765 10767 10769 10771 10772 10773 10774 10776 10777 10779 10780 10781 10782 10782 10783 10784 10785 10785 10786 10786 10787 10788 10788 10788 10789 10789 10789 10789 10789 10789 10790 10790 10790 10790 10790 10790 10790 10791 10791 10791 10791 10791 10791 10791 10791 10791 10791 10791 10791 10791 10791 10791 10790
10668 10674 10679 10685 10690 10694 10699 10703 10707 10712 10716 10719 10722 10726 10729 10732 10735 10737 10739 10740 10742 10743 10744 10745 10746 10749 10752 10754 10755 10756 10758 10760 10762 10764 10767 10768 10769 10771 10772 10774 10775 10777 10778 10779 10780 10781 10782 10783 10784 10784 10784 10785 10785 10786 10786 10787 10787 10787 10787 10787 10787 10787 10788 10788 10788 10788 10789 10789 10789 10789 10789 10789 10788 10788 10788 10788 10788 10788 10788 10788 10788 10788 10788 10788 10787
10664 10670 10675 10680 10685 10689 10693 10698 10702 10707 10710 10714 10718 10721 10725 10728 10731 10733 10734 10737 10739 10739 10740 10740 10741 10745 10747 10750 10752 10753 10755 10757 10759 10762 10764 10765 10767 10768 10770 10772 10773 10775 10776 10777 10778 10779 10780 10780 10781 10782 10782 10783 10783 10784 10784 10784 10785 10785 10785 10785 10785 10785 10785 10786 10786 10786 10786 10787 10787 10787 10787 10787 10786 10786 10786 10785 10785 10785 10785 10785 10785 10785 10785 10785 10784
10660 10666 10670 10675 10680 10685 10688 10691 10697 10702 10705 10709 10713 10717 10721 10724 10726 10728 10731 10734 10735 10736 10736 10735 10737 10741 10743 10746 10749 10751 10753 10754 10756 10759 10761 10762 10764 10765 10767 10769 10771 10773 10774 10775 10776 10777 10777 10778 10778 10779 10780 10780 10781 10781 10781 10782 10782 10782 10783 10783 10783 10783 10783 10783 10783 10784 10784 10784 10784 10784 10785 10784 10784 10784 10784 10783 10783 10783 10782 10782 10782 10782 10782 10781 10781
10654 10660 10665 10669 10674 10678 10680 10683 10688 10694 10699 10704 10708 10712 10716 10719 10722 10725 10727 10730 10732 10733 10733 10733 10734 10736 10739 10743 10746 10748 10750 10752 10753 10756 10758 10759 10761 10762 10764 10767 10769 10771 10772 10773 10774 10775 10775 10775 10776 10777 10777 10777 10778 10778 10779 10779 10779 10780 10780 10780 10780 10780 10780 10781 10781 10781 10782 10782 10782 10782 10782 10782 10782 10782 10781 10781 10780 10780 10780 10779 10779 10779 10779 10779 10778
10648 10654 10659 10663 10667 10671 10673 10675 10679 10685 10692 10699 10704 10708 10712 10715 10718 10721 10723 10726 10729 10732 10731 10730 10729 10731 10735 10738 10741 10744 10748 10749 10750 10752 10754 10755 10757 10759 10761 10764 10766 10768 10769 10771 10772 10772 10773 10773 10774 10774 10774 10774 10775 10776 10776 10776 10777 10777 10777 10777 10778 10778 10778 10778 10778 10779 10779 10779 10779 10779 10779 10779 10779 10779 10778 10778 10778 10778 10777 10777 10777 10776 10776 10776 10776
10642 10648 10652 10656 10660 10664 10666 10669 10674 10681 10688 10694 10699 10703 10707 10710 10713 10716 10719 10721 10725 10728 10728 10727 10726 10728 10731 10734 10737 10741 10744 10745 10746 10748 10750 10751 10752 10755 10758 10760 10762 10764 10766 10767 10768 10769 10770 10771 10772 10772 10772 10772 10772 10773 10773 10774 10774 10774 10774 10774 10774 10775 10775 10775 10776 10776 10776 10776 10776 10776 10776 10776 10776 10776 10776 10775 10775 10775 10774 10774 10774 10774 10773 10773 10773
10636 10641 10646 10650 10654 10657 10660 10664 10671 10678 10684 10689 10695 10699 10703 10706 10709 10712 10715 10717 10720 10722 10723 10724 10725 10726 10729 10732 10735 10738 10740 10741 10742 10744 10746 10747 10748 10751 10754 10756 10758 10760 10762 10763 10765 10766 10767 10768 10769 10769 10769 10769 10770 10770 10770 10770 10771 10771 10771 10771 10771 10771 10772 10772 10773 10773 10773 10773 10773 10773 10773 10773 10773 10773 10773 10772 10772 10772 10772 10771 10771 10771 10771 10770 10770
10628 10634 10639 10643 10648 10651 10655 10661 10668 10674 10680 10685 10691 10695 10699 10702 10705 10708 10711 10714 10716 10718 10720 10721 10723 10725 10727 10730 10733 10734 10735 10737 10738 10739 10742 10744 10745 10748 10750 10752 10754 10756 10757 10758 10759 10761 10763 10764 10765 10765 10766 10766 10767 10767 10767 10767 10768 10768 10768 10768 10768 10768 10768 10769 10769 10770 10770 10770 10770 10770 10770 10770 10770 10770 10770 10769 10769 10769 10768 10768 10768 10768 10767 10767 10767
10622 10628 10632 10637 10642 10646 10651 10658 10665 10670 10676 10681 10687 10691 10695 10698 10701 10704 10707 10710 10713 10715 10717 10718 10719 10722 10724 10726 10728 10729 10730 10732 10734 10735 10737 10740 10742 10745 10747 10749 10751 10752 10753 10754 10755 10756 10758 10760 10761 10762 10762 10763 10763 10763 10764 10764 10765 10765 10765 10765 10765 10765 10765 10766 10766 10766 10767 10767 10767 10767 10767 10767 10767 10766 10766 10766 10766 10765 10765 10765 10765 10764 10764 10764 10764
10616 10621 10626 10631 10636 10642 10648 10654 10660 10666 10672 10677 10682 10686 10690 10693 10696 10699 10703 10706 10709 10712 10714 10715 10716 10718 10720 10723 10724 10724 10726 10728 10730 10731 10734 10737 10740 10742 10745 10746 10747 10748 10749 10750 10750 10751 10753 10755 10757 10758 10759 10759 10760 10760 10760 10761 10761 10761 10761 10761 10762 10762 10762 10762 10763 10763 10763 10763 10764 10764 10763 10763 10763 10762 10762 10762 10762 10762 10761 10761 10761 10761 10760 10760 10760
10610 10615 10620 10625 10630 10636 10643 10649 10655 10661 10667 10672 10677 10681 10685 10688 10691 10695 10699 10702 10705 10708 10710 10712 10712 10714 10717 10720 10720 10721 10722 10722 10724 10728 10731 10734 10737 10739 10742 10743 10744 10745 10745 10746 10747 10747 10749 10751 10753 10755 10755 10756 10756 10757 10757 10757 10757 10757 10758 10758 10758 10758 10759 10759 10759 10760 10760 10760 10760 10760 10760 10759 10759 10759 10758 10758 10757 10757 10757 10757 10757 10756 10756 10756 10756
10603 10608 10614 10619 10625 10631 10637 10643 10649 10655 10661 10667 10671 10675 10679 10683 10686 10690 10693 10697 10701 10704 10706 10707 10709 10711 10713 10714 10714 10715 10716 10717 10721 10725 10728 10730 10733 10736 10737 10739 10740 10741 10742 10744 10744 10744 10745 10747 10750 10752 10753 10753 10754 10754 10754 10755 10754 10753 10754 10755 10755 10754 10755 10755 10755 10756 10756 10756 10756 10756 10756 10755 10755 10755 10754 10754 10753 10753 10753 10753 10752 10752 10752 10752 10752
10596 10602 10608 10613 10619 10625 10631 10637 10643 10649 10655 10660 10665 10670 10675 10679 10682 10684 10688 10691 10695 10699 10701 10703 10705 10707 10708 10708 10708 10710 10713 10715 10718 10722 10724 10727 10729 10731 10733 10734 10735 10737 10738 10740 10741 10741 10742 10744 10746 10748 10750 10751 10751 10750 10750 10751 10751 10750 10750 10750 10751 10751 10751 10751 10751 10752 10752 10752 10753 10752 10752 10752 10751 10751 10751 10750 10749 10749 10749 10748 10748 10748 10747 10747 10747
10589 10595 10601 10606 10612 10619 10624 10630 10636 10643 10649 10654 10659 10664 10669 10673 10676 10679 10683 10687 10690 10693 10696 10698 10700 10702 10703 10704 10706 10708 10710 10712 10715 10718 10720 10722 10724 10727 10728 10729 10731 10732 10734 10735 10737 10738 10738 10740 10742 10744 10746 10748 10748 10747 10746 10746 10747 10746 10746 10746 10746 10747 10747 10747 10747 10747 10747 10748 10749 10749 10748 10748 10748 10748 10747 10747 10746 10746 10745 10745 10744 10744 10743 10742 10742
10582 10588 10594 10600 10606 10612 10618 10624 10630 10637 10643 10649 10654 10658 10663 10666 10669 10672 10677 10681 10685 10688 10690 10692 10695 10697 10699 10701 10704 10706 10707 10709 10711 10714 10716 10718 10721 10723 10724 10725 10727 10729 10729 10730 10732 10734 10735 10736 10738 10739 10741 10743 10744 10743 10742 10742 10742 10742 10742 10742 10742 10743 10743 10742 10743 10743 10743 10743 10744 10745 10744 10744 10744 10744 10744 10744 10743 10742 10742 10742 10741 10740 10739 10739 10738
10575 10581 10587 10593 10599 10606 10612 10618 10624 10631 10638 10643 10646 10650 10655 10659 10662 10667 10671 10676 10679 10682 10684 10686 10688 10691 10694 10698 10700 10702 10703 10705 10708 10710 10713 10715 10717 10718 10720 10722 10724 10725 10726 10727 10729 10731 10732 10733 10734 10735 10736 10738 10739 10738 10737 10737 10737 10737 10737 10737 10737 10737 10738 10738 10738 10739 10739 10739 10739 10740 10741 10740 10740 10741 10741 10741 10740 10740 10739 10739 10737 10736 10736 10736 10736
10569 10575 10581 10586 10592 10599 10606 10612 10618 10625 10630 10634 10637 10642 10648 10653 10657 10662 10666 10671 10674 10677 10679 10680 10682 10686 10690 10693 10696 10698 10700 10702 10704 10707 10710 10712 10713 10714 10717 10719 10721 10722 10723 10724 10725 10727 10729 10729 10730 10731 10732 10732 10733 10732 10732 10732 10732 10733 10733 10733 10732 10732 10733 10733 10734 10734 10735 10736 10735 10736 10736 10737 10737 10737 10737 10737 10736 10736 10736 10735 10734 10733 10733 10733 10733
10563 10568 10574 10580 10587 10594 10601 10607 10611 10616 10620 10624 10630 10637 10643 10647 10651 10655 10660 10664 10668 10671 10674 10674 10677 10682 10687 10690 10692 10694 10696 10698 10700 10703 10706 10708 10709 10711 10713 10716 10717 10717 10719 10720 10721 10723 10724 10724 10725 10726 10727 10726 10726 10727 10726 10726 10726 10728 10729 10729 10729 10729 10729 10729 10728 10729 10730 10732 10732 10732 10732 10732 10733 10734 10734 10732 10731 10731 10732 10730 10730 10729 10729 10729 10729
10556 10561 10567 10573 10581 10588 10593 10599 10603 10606 10612 10618 10625 10631 10636 10640 10645 10649 10653 10658 10662 10665 10667 10669 10672 10677 10681 10684 10686 10688 10691 10693 10696 10699 10702 10704 10706 10708 10710 10711 10712 10712 10713 10714 10716 10718 10719 10720 10720 10721 10722 10720 10720 10721 10721 10720 10721 10723 10725 10725 10725 10726 10726 10725 10724 10724 10725 10726 10727 10728 10727 10727 10729 10730 10730 10728 10727 10726 10726 10725 10725 10725 10725 10725 10725
10548 10554 10560 10567 10573 10579 10585 10591 10596 10601 10607 10613 10619 10624 10629 10633 10637 10642 10646 10651 10655 10658 10661 10663 10666 10670 10674 10677 10679 10682 10685 10688 10691 10694 10697 10700 10701 10703 10704 10705 10706 10706 10707 10709 10711 10713 10715 10715 10715 10716 10716 10715 10715 10716 10716 10716 10717 10719 10720 10720 10720 10721 10722 10721 10719 10719 10719 10720 10721 10721 10721 10722 10725 10726 10724 10724 10724 10723 10722 10721 10720 10721 10721 10720 10720
10541 10547 10553 10560 10566 10572 10577 10584 10590 10596 10601 10605 10611 10617 10621 10626 10630 10635 10640 10644 10648 10651 10654 10656 10659 10664 10667 10670 10672 10675 10678 10682 10686 10689 10692 10694 10695 10696 10697 10698 10699 10699 10701 10703 10705 10707 10710 10711 10711 10711 10710 10710 10711 10710 10711 10712 10713 10714 10715 10714 10714 10716 10717 10716 10715 10714 10714 10715 10715 10716 10715 10714 10717 10721 10719 10717 10718 10719 10719 10717 10715 10715 10715 10715 10715
10534 10540 10546 10553 10559 10564 10570 10576 10583 10590 10595 10598 10603 10609 10614 10619 10623 10628 10633 10637 10641 10644 10647 10650 10653 10657 10661 10663 10666 10669 10672 10678 10682 10684 10685 10687 10688 10689 10690 10691 10692 10693 10695 10697 10699 10702 10704 10706 10706 10705 10705 10707 10707 10705 10706 10708 10707 10707 10708 10708 10709 10711 10711 10711 10710 10709 10709 10709 10710 10712 10712 10708 10709 10715 10714 10710 10711 10713 10713 10712 10712 10711 10710 10710 10710
10526 10532 10539 10545 10551 10557 10562 10569 10576 10583 10589 10592 10596 10601 10607 10612 10616 10621 10625 10629 10633 10636 10640 10643 10646 10650 10653 10657 10660 10663 10669 10674 10677 10677 10678 10678 10679 10681 10683 10684 10686 10688 10690 10691 10693 10696 10699 10700 10701 10701 10700 10702 10702 10700 10699 10700 10701 10701 10702 10703 10705 10705 10704 10704 10704 10705 10705 10704 10704 10707 10708 10704 10702 10708 10708 10704 10705 10708 10707 10706 10706 10706 10705 10704 10704
10519 10525 10531 10537 10543 10549 10555 10561 10568 10575 10582 10586 10590 10594 10599 10604 10608 10613 10617 10622 10626 10630 10633 10636 10638 10642 10646 10650 10654 10660 10666 10669 10668 10668 10669 10669 10670 10673 10676 10678 10680 10681 10683 10684 10687 10690 10692 10694 10695 10695 10694 10694 10695 10694 10692 10692 10695 10696 10697 10698 10699 10699 10699 10698 10699 10699 10698 10697 10697 10700 10703 10700 10697 10699 10701 10698 10699 10702 10701 10700 10699 10698 10698 10698 10698
10512 10518 10524 10530 10536 10542 10548 10554 10560 10567 10574 10580 10584 10587 10592 10596 10600 10605 10610 10615 10619 10622 10624 10627 10631 10635 10640 10645 10649 10655 10659 10659 10658 10658 10659 10660 10663 10666 10669 10671 10672 10674 10675 10677 10681 10683 10685 10687 10688 10687 10687 10686 10687 10688 10686 10686 10687 10689 10691 10693 10691 10691 10693 10694 10693 10692 10691 10690 10689 10691 10695 10695 10690 10691 10694 10693 10693 10695 10695 10694 10692 10691 10691 10691 10691
10507 10512 10518 10523 10529 10535 10541 10546 10553 10559 10566 10572 10577 10581 10585 10589 10593 10597 10602 10607 10610 10613 10617 10620 10624 10629 10634 10638 10643 10647 10649 10649 10649 10649 10651 10654 10657 10659 10661 10662 10664 10665 10667 10670 10673 10674 10676 10678 10679 10680 10680 10679 10679 10680 10679 10679 10679 10680 10683 10685 10684 10684 10687 10688 10686 10684 10684 10683 10681 10680 10685 10687 10684 10684 10686 10687 10688 10688 10687 10686 10686 10686 10687 10686 10683
10502 10507 10511 10517 10522 10527 10533 10539 10545 10551 10557 10563 10569 10573 10577 10581 10585 10589 10594 10598 10602 10606 10610 10613 10617 10622 10627 10631 10634 10636 10638 10640 10641 10642 10645 10647 10649 10650 10652 10654 10656 10657 10659 10661 10663 10665 10667 10669 10670 10671 10671 10671 10671 10671 10671 10670 10669 10669 10673 10676 10676 10676 10678 10679 10679 10678 10678 10676 10670 10668 10675 10679 10677 10675 10676 10679 10683 10682 10677 10677 10680 10681 10681 10679 10675